Location: Codford Saint Peter
(51.1597°N, 2.0531°W)
Time: 05:06:42
(UTC+00:00)

Envisat - Pass Details

Date: 07 February 2022
Orbit: 764 x 765 km, 98.2° (Epoch: 22 May)

Event Time Altitude Azimuth Distance (km) Brightness Sun altitude
Rises 06:48:22 0° 5° (N) 3,245 6.1 -7.9°
Reaches altitude 10° 06:51:15 10° 348° (NNW) 2,315 5.2 -7.4°
Maximum altitude 06:54:46 19° 304° (NW) 1,761 4.3 -6.9°
Drops below altitude 10° 06:58:16 10° 260° (W) 2,306 4.9 -6.4°
Sets 07:01:09 0° 244° (WSW) 3,228 5.8 -5.9°
